Theta_e
350 350 351 352 354 353 350 351 352 352 351 350 351 353 354 354 353 352 352 353 354 352 352 353 351 347 347 349 351 351 348 347 348 347 345 345 346 349 352 352 349 347 346 346 349 354 354 351 350 347 345 345 345 350 354 353 352 353 353 353 353 355 354 353 354 352 349 350 351 350 351 350 348 347 346 344 345 346 346 345 345 346 345 344 343
350 350 353 352 353 354 353 352 352 352 352 351 352 354 354 355 354 352 350 351 353 353 353 354 353 350 352 353 354 355 352 348 349 349 346 345 345 348 352 351 347 345 345 345 346 348 350 348 345 343 344 346 347 351 354 352 351 353 353 353 353 353 353 353 354 353 350 348 346 343 345 347 345 341 340 344 347 346 345 345 346 345 343 343 343
351 351 352 352 352 353 353 353 352 353 353 352 354 355 354 355 354 353 353 352 352 353 353 354 354 353 354 355 354 355 354 350 348 350 350 348 345 348 353 355 353 348 345 346 347 348 350 351 349 349 351 353 353 354 354 352 351 352 351 352 353 352 352 354 354 353 352 349 341 336 338 339 339 338 342 347 347 345 345 346 345 345 345 346 346
350 351 352 352 352 352 352 352 352 351 353 354 354 354 354 354 354 354 354 353 354 354 353 354 355 353 353 355 354 353 354 351 348 351 354 352 348 347 351 354 355 353 350 352 354 354 355 356 355 355 355 355 354 353 352 351 351 350 351 352 352 350 351 351 351 351 350 346 339 338 339 339 340 343 345 346 345 343 344 344 345 346 347 347 347
350 351 351 351 352 351 351 352 352 351 350 351 353 353 353 353 354 354 354 354 354 354 354 353 354 353 351 353 354 351 350 351 348 350 356 356 352 350 350 351 353 353 352 352 352 353 353 353 353 353 353 353 353 351 350 349 350 351 351 351 349 348 349 348 348 347 345 344 342 343 343 343 344 344 344 344 343 342 343 344 346 346 346 345 346
350 351 351 352 351 351 351 350 350 351 350 348 349 351 351 351 352 353 353 354 353 354 355 354 354 355 351 350 353 349 346 348 347 348 355 357 355 353 353 353 353 353 353 352 351 350 350 350 350 350 350 351 351 351 350 348 348 348 348 348 347 347 347 347 347 346 345 345 345 345 345 345 344 342 341 341 342 343 344 344 345 344 344 345 345
349 350 351 352 351 350 350 350 349 349 348 348 347 347 348 349 350 351 352 353 352 351 353 353 354 356 354 351 354 353 348 348 349 349 352 356 357 356 355 355 354 353 354 353 352 350 349 349 349 348 347 347 347 348 348 347 347 347 347 347 347 346 347 348 347 345 344 345 344 343 343 342 341 340 340 341 343 344 344 344 344 343 343 344 344
349 350 351 351 351 349 349 350 349 347 347 347 346 346 346 346 346 348 349 350 351 350 351 353 353 355 355 353 354 356 354 352 352 351 348 352 356 357 355 354 353 352 352 351 350 348 347 346 346 345 345 344 343 344 345 346 345 345 345 346 346 346 345 344 340 336 336 338 338 338 339 341 343 343 343 344 344 343 343 344 344 343 344 345 344
350 350 351 351 352 351 349 349 349 347 346 346 345 345 345 345 345 346 347 348 350 349 349 351 352 353 354 353 354 355 355 354 353 351 348 350 353 354 353 353 353 352 351 350 348 347 346 345 344 343 343 342 343 343 344 345 344 342 342 342 341 339 337 335 333 332 334 337 338 340 343 345 346 345 344 344 342 342 343 345 345 345 346 346 344
354 352 351 351 351 351 348 348 349 348 347 345 345 345 344 345 345 345 345 346 347 348 347 348 349 348 349 351 352 353 352 351 350 349 349 349 349 351 352 352 351 351 351 350 349 347 347 346 344 343 343 343 343 344 343 344 344 344 343 341 337 334 333 335 336 338 340 342 343 345 347 348 347 347 347 346 345 345 346 346 346 346 347 348 346
356 355 355 354 354 353 350 347 347 348 348 347 347 346 344 345 346 346 346 346 345 346 346 346 346 346 346 347 349 349 350 350 349 348 348 346 347 350 352 352 351 351 351 351 350 350 349 348 346 345 343 342 342 342 343 344 344 344 344 342 339 336 337 340 342 342 343 344 345 347 349 348 347 347 347 348 348 347 346 345 347 347 348 350 348
356 357 358 356 355 355 351 347 346 346 346 346 347 347 346 345 346 347 347 347 347 347 347 346 346 345 345 344 345 345 346 347 347 346 346 347 347 348 349 350 350 350 350 350 350 350 349 348 347 346 344 344 344 343 344 344 344 346 346 344 343 342 341 342 343 343 343 343 344 345 346 345 345 346 347 348 348 347 345 345 348 350 351 350 348
354 357 359 357 355 353 351 352 351 349 347 347 347 348 347 347 347 348 348 348 349 349 349 349 348 347 346 345 343 342 343 343 344 344 345 346 346 346 346 347 347 346 346 347 348 348 348 348 348 347 346 345 345 345 344 344 345 347 348 346 344 342 342 344 345 346 347 347 347 347 346 347 348 349 349 349 348 348 348 348 350 352 352 351 349
353 356 358 355 354 352 353 356 356 354 352 351 350 349 348 349 349 349 349 350 352 353 352 352 351 350 349 346 345 343 342 342 345 345 345 344 345 345 345 345 345 344 343 344 345 345 345 345 345 346 347 347 346 346 345 345 346 349 350 349 346 346 347 348 349 350 350 351 351 350 349 350 351 352 351 350 349 350 351 352 352 352 352 351 351
353 355 355 353 353 353 353 355 355 355 355 353 352 351 350 351 352 352 353 353 353 353 352 353 353 352 350 348 347 345 343 343 345 346 346 345 345 345 345 345 345 343 341 343 347 347 345 344 344 344 345 347 347 347 346 346 347 349 351 350 350 352 353 353 352 351 350 351 351 351 350 350 351 352 352 351 351 352 353 353 353 352 352 352 351
351 352 353 354 354 353 353 353 353 354 354 352 351 351 350 350 351 351 353 353 351 351 351 352 352 351 350 349 348 346 345 345 345 347 348 348 347 347 347 346 345 343 342 345 349 349 346 346 347 347 347 347 348 349 349 348 349 350 350 351 352 353 353 353 352 352 352 351 351 351 351 350 351 352 352 352 352 352 353 353 352 351 351 351 351
350 350 351 353 353 352 352 352 351 351 350 350 350 350 350 349 349 348 349 349 349 350 351 350 350 350 351 350 349 347 346 345 345 346 347 347 348 349 347 346 346 344 345 348 349 348 346 346 347 347 348 349 349 349 348 347 349 351 352 352 352 352 352 351 351 352 352 352 351 352 352 352 352 352 353 353 353 353 353 352 352 352 352 352 352
350 350 351 350 350 350 350 350 350 349 350 351 351 351 350 350 350 350 350 351 351 350 350 350 350 350 351 351 351 350 349 347 345 344 344 344 346 348 347 347 347 346 348 350 350 348 348 348 347 346 346 346 346 347 346 345 347 350 351 351 351 351 350 350 350 351 351 351 352 353 353 353 353 353 353 353 352 352 352 352 352 353 353 353 353
349 349 349 349 348 348 348 349 349 349 350 351 351 351 352 351 351 352 352 353 353 352 352 351 350 351 352 352 352 351 351 351 349 347 347 346 347 348 349 350 350 350 350 350 350 351 350 349 348 348 347 347 348 348 348 347 348 349 350 350 351 351 351 351 351 351 351 352 352 352 352 352 351 351 351 351 351 352 352 352 352 352 353 353 354
347 347 347 347 347 347 347 348 349 348 349 350 349 350 350 348 347 347 348 350 351 350 350 351 351 352 351 352 352 352 352 352 351 351 351 350 350 350 351 351 351 351 351 351 351 352 351 350 349 350 350 350 349 349 348 349 349 350 351 352 352 352 352 351 351 351 351 350 350 349 349 350 350 351 351 351 352 352 352 352 352 352 353 353 352
344 344 345 345 345 345 346 346 347 346 347 347 346 345 344 342 342 342 344 345 345 345 345 346 347 349 349 349 350 351 350 350 350 351 351 350 350 350 350 350 351 350 350 351 351 351 350 350 350 350 350 350 350 350 349 350 350 349 349 348 348 347 347 346 346 346 345 346 347 348 349 349 351 352 352 352 352 351 349 347 345 346 349 350 350
339 339 341 342 343 343 343 343 343 342 342 342 341 340 340 340 341 341 341 342 343 343 341 340 341 343 344 343 344 345 345 346 345 345 346 347 347 348 348 349 349 349 349 350 350 350 349 349 349 349 349 349 348 347 346 345 344 341 339 337 336 336 335 335 335 337 341 344 346 347 347 348 349 350 350 350 348 343 338 334 332 335 341 345 347
335 335 336 337 338 337 337 338 339 339 339 338 338 339 339 339 339 339 338 339 339 339 339 338 338 338 338 336 335 335 336 335 332 330 332 334 335 336 338 340 340 343 346 346 345 346 346 346 347 344 340 337 336 335 334 333 332 330 329 328 327 327 327 329 333 337 338 337 337 338 337 337 340 340 339 337 333 328 324 323 324 330 336 338 340
328 328 327 328 330 331 331 330 332 333 333 332 333 334 334 335 337 336 336 336 336 336 337 337 338 338 337 336 334 333 332 331 327 324 323 323 323 323 324 326 329 337 344 343 341 342 344 344 342 333 326 324 324 324 323 323 322 322 322 322 322 324 329 335 339 341 336 328 330 335 333 330 332 332 328 324 321 318 318 318 321 325 327 326 326
321 320 320 320 321 322 322 321 321 323 322 322 323 323 324 329 333 333 335 336 335 336 337 336 336 336 336 337 336 334 334 333 331 328 324 321 321 322 321 320 321 328 335 336 334 333 332 332 328 321 318 319 319 318 317 317 317 318 319 320 321 324 332 338 340 338 331 323 323 328 326 322 323 322 318 316 314 315 317 317 317 316 316 315 314
314 315 316 317 317 320 323 322 322 320 317 317 318 320 325 331 331 329 332 333 331 333 334 334 334 334 334 336 336 335 334 335 334 332 327 322 321 322 321 319 319 320 322 323 323 321 319 318 317 315 316 316 314 314 316 317 319 319 321 324 325 325 329 332 331 327 324 319 317 318 317 314 313 313 312 311 313 318 321 319 314 310 310 311 311
310 311 312 313 318 326 330 329 327 325 323 323 324 325 329 330 327 326 331 332 331 332 332 331 332 332 332 333 335 333 332 333 333 331 327 322 320 320 321 321 321 320 318 317 315 314 314 314 313 312 313 313 314 319 322 323 325 325 324 327 327 324 324 326 326 325 325 322 319 316 314 311 310 311 311 311 314 318 319 314 310 309 310 310 309
309 311 312 314 317 322 327 330 329 327 328 329 330 329 330 330 327 328 332 332 331 332 332 331 331 331 331 332 333 333 332 332 332 331 328 325 322 322 324 323 320 317 315 313 312 312 312 311 311 314 317 319 321 323 325 326 328 328 326 326 325 323 324 326 326 326 326 323 318 314 311 310 311 310 309 310 313 313 311 309 309 310 309 308 310
313 319 323 324 319 315 320 327 329 328 328 328 329 330 330 330 329 329 331 331 330 329 330 329 329 330 332 332 331 331 331 331 330 330 329 327 323 320 319 318 316 314 313 312 312 312 311 311 314 320 325 326 324 324 324 325 326 326 325 325 323 323 325 326 325 325 324 320 314 311 310 310 309 309 310 313 312 309 308 310 310 310 310 313 317
319 323 326 324 319 318 322 326 327 328 328 327 328 329 329 330 330 329 329 329 328 327 328 328 327 327 329 330 330 331 330 330 329 328 328 328 325 320 315 313 313 313 313 313 313 312 313 318 323 326 328 326 323 323 325 325 324 324 325 324 323 324 325 324 325 325 322 317 314 314 313 311 313 316 318 316 311 309 311 314 313 314 316 318 320
321 322 324 322 318 321 327 327 327 329 329 327 327 327 326 326 327 327 326 325 323 322 322 323 326 326 325 326 328 328 328 327 327 326 326 325 323 320 315 313 314 314 313 313 312 311 315 324 327 327 327 326 325 325 326 325 324 325 324 323 323 324 323 323 324 322 318 316 317 317 314 313 318 321 320 315 313 315 317 316 315 315 316 317 319
326 326 326 321 316 321 327 326 326 329 329 327 327 326 324 323 324 324 325 324 322 319 316 315 318 321 322 324 324 323 321 320 319 320 319 319 318 316 314 313 314 313 312 312 311 309 315 324 327 326 326 327 326 325 325 325 324 324 323 323 323 323 323 323 322 319 318 319 318 315 311 312 315 315 314 315 317 319 318 316 315 316 316 317 319
326 327 326 321 316 321 325 322 320 326 328 326 325 325 325 325 326 325 325 323 322 322 320 316 314 314 315 317 317 316 314 314 314 314 313 313 313 312 311 311 311 310 312 315 315 314 318 324 325 325 325 325 324 324 324 323 323 323 322 322 322 322 322 322 320 319 320 320 316 312 312 313 312 312 314 318 319 319 318 318 318 319 319 319 318
318 321 322 319 317 322 325 323 321 324 325 323 324 324 324 324 325 324 324 324 324 323 323 321 319 317 316 316 315 314 313 312 312 312 311 311 310 310 310 310 309 312 318 320 320 320 322 323 323 323 323 323 322 322 322 321 322 322 321 321 321 321 320 319 318 319 318 315 312 313 313 313 313 316 318 318 318 318 319 319 319 320 320 318 317
310 311 313 314 317 322 324 323 323 324 322 321 322 323 323 323 324 323 323 323 323 322 322 322 322 322 321 320 318 317 316 315 313 312 311 311 310 311 311 310 311 317 322 323 321 322 322 322 321 321 321 321 321 320 320 320 320 320 319 319 319 318 318 318 317 317 316 314 314 315 316 316 317 319 318 317 317 317 317 317 317 318 318 317 318
312 313 309 310 317 321 320 317 318 318 316 316 318 319 321 322 322 322 322 322 321 321 321 322 323 322 321 319 319 318 318 317 315 314 315 314 314 314 312 311 313 319 322 321 321 321 321 320 320 320 319 319 319 319 319 318 318 318 317 317 317 317 317 317 316 316 316 316 317 317 317 318 319 318 317 317 316 316 316 316 316 317 317 317 317
320 321 316 314 319 322 319 313 311 311 310 310 311 314 318 321 321 321 322 322 322 322 321 321 322 320 320 319 320 320 319 317 315 316 317 318 317 317 316 315 316 319 320 320 320 320 319 319 319 319 318 318 318 317 317 317 316 316 316 316 316 316 315 315 316 316 316 316 316 317 317 317 317 316 316 316 315 315 315 316 316 316 316 314 313
322 323 321 319 320 320 317 314 312 311 311 310 309 310 314 318 319 319 320 320 320 321 321 321 320 319 319 321 321 320 319 317 316 316 317 317 317 317 317 318 318 318 319 319 319 318 318 318 318 317 317 317 316 316 316 315 315 315 315 315 315 315 315 315 315 315 315 315 315 315 315 314 314 314 314 314 314 314 315 315 314 314 313 312 312
320 321 321 319 316 315 316 316 317 316 316 315 314 315 316 318 318 319 319 319 319 320 320 320 319 319 319 320 320 319 318 317 317 316 316 316 316 317 317 317 317 317 317 317 317 318 318 318 317 317 317 316 316 315 315 314 314 314 314 313 313 313 313 313 313 313 313 313 313 313 313 313 313 313 313 312 312 312 312 312 312 311 311 312 312
318 319 318 316 315 314 315 316 317 317 318 318 318 318 318 318 318 318 319 319 319 320 319 319 319 319 319 318 318 318 317 317 317 316 315 315 315 315 316 316 316 316 316 316 316 317 316 316 316 316 316 316 315 314 314 313 313 313 313 313 313 312 312 312 312 312 312 312 311 311 311 311 311 311 311 311 310 310 309 309 309 309 309 309 309
319 318 318 317 315 315 314 315 315 316 317 318 318 317 317 317 317 316 316 317 318 318 318 318 318 318 317 317 316 316 315 315 314 314 314 313 313 313 314 315 314 314 315 315 315 315 315 315 315 315 315 314 314 313 312 312 311 311 311 311 311 311 310 310 310 310 310 310 309 309 309 309 309 308 308 307 307 306 306 305 305 306 306 306 306
319 319 319 318 317 315 315 314 315 315 316 316 316 315 315 314 313 313 313 315 315 316 317 317 317 316 316 315 314 314 313 313 312 312 312 312 311 312 313 313 313 313 313 313 313 313 313 314 314 313 312 312 311 311 310 310 309 309 309 309 309 309 308 308 308 308 307 307 307 307 307 306 306 305 304 304 304 303 303 303 303 304 304 304 304
318 318 318 318 317 316 315 315 315 316 316 316 315 314 314 313 312 312 314 315 315 315 315 315 315 315 314 313 313 312 312 311 310 310 310 310 310 311 311 311 311 311 311 311 311 311 311 311 311 310 309 309 309 308 308 308 308 307 307 307 307 307 306 306 306 306 306 305 305 304 304 303 303 302 302 302 302 302 302 302 301 302 302 302 303
318 318 318 317 317 316 316 316 316 316 316 316 316 315 314 314 313 313 313 314 314 314 314 313 313 313 313 312 311 311 310 310 309 310 310 310 310 310 310 310 310 310 310 310 310 309 308 308 308 307 307 307 306 306 306 306 306 306 305 305 305 305 305 304 304 304 304 303 302 302 301 301 301 300 300 301 301 301 300 300 300 300 300 300 301
318 318 318 317 317 317 316 316 316 316 315 315 315 314 313 313 312 312 312 313 313 313 312 312 312 312 311 311 310 310 309 309 309 308 308 309 308 308 308 308 308 308 308 308 307 307 306 305 305 305 305 304 304 305 304 304 304 304 304 303 303 303 303 303 302 302 302 302 301 300 300 299 299 299 299 299 299 299 299 299 299 299 299 300 300
318 318 318 317 316 316 316 316 315 315 314 313 313 313 313 312 312 312 312 312 312 312 311 311 310 310 310 310 309 309 308 308 308 307 307 307 307 307 307 307 307 306 306 306 305 305 304 304 303 303 303 302 302 302 302 302 302 302 302 302 302 302 302 301 301 301 300 300 299 299 299 298 298 298 298 298 298 297 298 298 298 298 299 299 300
317 317 317 316 315 315 314 314 314 314 313 313 312 312 312 312 312 312 311 311 310 310 309 309 309 309 308 308 308 307 307 307 306 306 306 306 306 306 306 305 305 305 304 304 304 303 303 302 302 302 301 301 301 301 300 300 300 300 300 300 300 300 300 300 300 299 299 299 298 298 298 297 297 297 297 297 297 297 297 297 297 298 298 299 299
317 317 317 315 313 313 313 313 313 313 313 312 312 311 311 311 311 310 310 309 309 308 308 307 307 306 306 306 306 306 305 305 305 304 304 304 304 304 304 304 303 303 303 302 302 301 301 301 300 300 300 300 300 300 299 299 299 299 299 299 299 299 299 299 298 298 298 298 297 297 297 297 297 296 296 296 296 296 296 296 297 298 298 299 299
317 316 315 314 312 312 312 312 312 312 312 312 311 309 308 308 309 309 309 308 308 307 307 306 306 305 305 305 305 305 304 303 303 303 303 303 303 303 302 302 302 301 301 301 300 300 300 300 299 299 299 299 299 299 298 298 298 298 299 299 298 298 298 297 297 297 297 297 296 296 296 296 296 296 296 296 296 296 296 296 297 298 298 299 299
316 315 314 313 312 311 311 311 312 312 311 309 308 307 307 308 308 308 307 307 307 306 306 305 305 305 305 304 304 303 303 303 303 302 302 302 302 301 301 301 301 300 300 300 299 299 299 299 299 298 298 298 298 298 298 298 298 298 298 298 298 297 297 296 296 296 296 296 296 295 295 295 295 295 295 295 295 295 296 296 297 298 298 298 299
314 314 314 312 311 310 310 311 310 309 308 307 306 307 307 308 307 306 306 306 305 305 305 305 305 304 304 303 303 303 303 302 302 302 301 301 301 300 300 300 300 299 299 299 298 298 298 298 298 298 298 298 298 298 297 298 297 297 297 297 297 296 296 296 296 296 296 295 295 295 295 295 295 295 295 295 294 295 296 296 297 298 298 299 299
Wind_Speed
20 19 18 17 16 16 16 15 15 14 14 13 12 11 11 11 11 11 12 13 12 11 11 11 10 10 11 10 10 10 10 10 10 9 9 9 9 8 8 8 7 7 8 8 7 7 9 8 8 8 7 7 6 4 3 5 6 6 7 7 7 7 8 10 13 15 15 13 12 12 11 13 14 14 15 15 14 15 16 18 19 18 18 18 18
19 19 18 18 17 17 16 16 16 14 14 14 13 12 13 13 12 11 11 12 13 12 11 11 11 10 10 10 11 11 11 10 10 10 9 9 9 9 9 8 7 8 8 7 7 8 8 8 8 6 5 6 7 5 5 6 6 6 7 8 7 5 7 10 12 14 15 14 14 13 11 12 14 15 14 13 15 17 17 17 17 16 16 16 17
19 18 19 18 17 17 16 16 16 15 14 13 13 14 14 14 13 12 11 11 12 12 12 12 12 11 12 12 12 12 11 9 10 10 9 9 9 9 10 9 9 8 7 7 7 7 7 7 7 5 5 6 7 6 6 6 6 7 7 7 7 7 7 8 10 12 14 15 15 15 14 14 15 15 15 14 16 18 18 17 17 16 15 15 17
19 19 19 18 17 17 16 16 16 16 15 14 15 15 14 14 14 13 13 12 12 12 12 13 13 12 13 14 13 12 12 10 10 10 10 9 9 9 10 11 10 9 7 7 7 7 7 7 7 6 6 7 7 7 6 4 6 8 7 7 8 9 8 8 10 11 13 16 16 15 16 17 17 17 16 17 19 19 18 17 17 17 16 17 18
19 19 19 18 18 17 16 16 16 16 16 15 15 14 14 15 15 14 14 13 13 14 13 14 15 14 14 14 14 14 13 12 11 11 11 11 10 9 9 10 10 10 9 8 8 9 9 9 8 8 8 8 8 7 5 5 7 8 7 7 8 9 9 10 10 11 13 16 17 17 18 18 18 17 16 18 19 19 18 16 16 17 18 20 20
20 20 19 19 20 19 18 17 16 16 16 16 15 14 14 15 14 14 15 14 14 14 14 15 15 15 14 14 13 13 13 12 11 11 11 12 11 9 9 10 10 9 9 9 9 9 9 9 9 9 9 9 9 8 7 8 9 9 8 8 9 11 11 10 11 12 14 15 17 17 17 17 17 17 16 17 18 18 18 16 16 18 20 21 21
21 20 20 19 20 21 20 18 17 16 16 16 15 15 15 15 14 14 15 15 15 14 14 15 15 14 13 13 13 13 13 13 12 11 12 12 11 11 11 10 9 9 9 9 9 9 9 10 11 11 11 11 10 9 10 9 9 8 8 9 10 11 10 10 11 12 13 15 16 17 18 18 18 17 17 18 17 18 18 17 19 22 22 23 25
22 21 21 20 19 21 21 19 17 16 16 17 16 16 15 15 15 15 14 15 15 14 13 13 14 14 14 13 14 14 13 13 13 12 12 12 11 12 11 10 9 10 10 10 10 10 10 11 12 13 14 15 14 13 10 9 10 10 10 10 11 11 12 14 16 16 15 16 18 19 20 20 19 18 19 18 18 18 18 20 22 24 24 27 29
24 23 22 21 20 20 20 20 19 18 17 17 18 17 15 15 16 16 16 15 14 14 14 13 12 13 13 12 13 13 13 13 13 13 12 12 12 12 11 10 10 11 11 12 11 11 11 11 11 12 14 14 15 15 14 13 14 15 14 14 15 16 17 18 18 18 18 19 19 19 19 19 19 18 19 19 19 19 19 20 23 26 28 30 31
24 24 23 22 21 20 20 20 20 20 19 19 20 19 18 15 15 16 17 16 15 14 14 14 13 13 13 12 12 13 13 13 13 12 11 11 11 11 11 11 12 12 12 12 13 12 12 12 12 13 14 13 13 15 17 17 18 18 19 19 19 19 18 18 18 19 19 20 20 19 18 18 18 18 19 20 19 19 20 22 26 29 30 30 31
23 24 24 22 20 20 20 19 20 21 22 23 23 23 23 20 17 15 16 16 17 16 15 15 14 14 14 13 13 13 14 14 13 13 13 14 13 11 11 11 11 12 12 13 14 13 13 13 13 13 14 15 15 16 16 17 18 19 19 19 18 18 18 18 19 19 20 21 21 19 19 20 21 20 21 20 20 22 24 26 28 29 28 29 32
22 22 22 21 21 21 20 19 20 22 23 25 25 24 24 23 21 20 18 17 17 18 17 16 15 15 13 12 13 14 16 17 17 16 16 16 16 15 13 11 10 11 11 11 13 13 14 14 13 14 13 13 14 14 15 17 17 17 17 17 16 17 18 20 21 20 20 20 21 21 21 22 22 22 21 22 24 26 27 27 27 27 27 30 35
21 19 19 20 22 22 20 19 21 22 21 22 23 23 23 23 23 23 22 20 19 18 17 16 16 16 16 15 15 16 16 17 17 18 18 18 18 18 18 16 15 14 12 12 13 13 13 14 15 15 14 15 16 15 15 16 16 16 17 19 19 19 19 19 19 19 19 20 20 21 20 20 21 22 22 23 25 27 28 28 28 29 31 34 36
22 20 19 21 22 22 22 22 22 21 20 20 21 22 22 22 22 22 23 22 21 19 18 17 18 19 19 20 20 20 18 16 15 16 17 20 20 20 21 21 20 19 16 14 13 14 14 16 17 17 17 18 20 18 17 16 15 15 18 21 20 17 17 18 18 18 19 19 20 22 21 19 20 23 24 25 26 27 28 29 31 32 34 34 33
22 21 20 22 23 24 25 25 23 19 17 18 19 20 20 19 19 20 21 20 19 19 20 20 20 20 20 21 22 22 21 19 18 16 16 19 20 20 22 22 22 21 18 13 12 15 17 18 20 21 20 21 22 22 20 18 17 18 21 22 20 17 16 18 20 19 19 19 20 22 22 20 21 23 25 26 27 28 28 29 31 32 33 32 30
20 20 21 21 22 24 25 25 23 19 17 18 20 20 19 18 19 19 18 16 18 22 23 22 21 20 20 21 22 22 22 22 22 21 21 21 21 21 22 22 21 19 17 14 15 18 20 20 21 22 22 23 23 23 23 21 21 22 23 24 24 21 19 19 20 20 20 20 22 23 23 24 24 25 25 26 27 28 29 30 30 30 30 31 30
21 23 24 22 21 22 21 22 22 20 19 20 21 19 18 19 20 21 19 19 21 23 24 24 24 23 23 24 24 23 22 22 23 24 24 24 23 23 23 22 21 18 16 16 17 20 22 22 22 23 23 23 23 23 23 22 21 22 24 25 26 24 22 22 22 22 22 22 22 23 24 25 25 25 26 26 27 28 29 30 28 26 27 28 27
24 25 25 23 20 19 17 17 18 18 19 20 18 17 17 19 20 19 18 19 21 21 22 24 26 25 25 27 26 26 25 24 24 25 25 25 25 24 23 23 22 20 18 18 19 21 22 22 22 23 24 24 24 24 24 23 22 22 24 25 26 26 26 27 26 25 24 23 23 22 23 23 24 25 26 26 26 26 25 24 24 24 24 23 22
23 23 22 21 19 17 15 15 15 16 17 17 17 17 18 17 15 14 13 14 17 19 20 22 24 23 24 26 25 24 25 25 25 26 25 25 25 24 23 22 21 20 19 19 19 20 21 22 21 21 22 24 25 25 24 23 23 23 23 24 25 25 25 26 25 25 25 25 24 23 22 23 24 24 23 23 22 21 19 20 22 23 23 21 21
19 19 18 18 16 15 13 12 12 14 16 16 14 13 12 10 8 9 10 10 11 13 15 17 19 19 19 21 22 23 23 23 23 23 22 22 22 21 20 19 18 18 17 17 18 18 18 20 20 20 21 23 24 24 24 23 22 22 21 21 22 22 22 23 22 23 24 23 23 21 20 19 19 18 17 17 17 17 17 18 20 20 20 21 21
15 15 14 14 13 12 12 10 8 7 10 11 7 6 5 5 6 5 5 6 4 3 4 7 11 13 13 15 17 18 18 18 18 18 17 17 16 15 15 15 14 14 14 14 15 15 15 17 19 20 21 22 22 23 22 22 20 20 18 18 18 18 19 19 19 19 19 18 16 15 15 15 15 15 15 14 13 14 15 17 18 19 19 19 20
14 13 13 13 12 11 11 13 14 13 12 11 11 13 12 10 11 12 10 11 10 6 3 2 2 7 9 9 10 11 11 11 11 10 9 10 10 10 11 11 11 12 12 11 10 10 12 14 16 18 18 19 19 18 18 17 16 14 13 13 13 13 14 15 14 13 12 12 11 11 13 13 13 13 13 13 13 15 16 17 18 18 18 17 17
12 12 12 12 12 12 12 14 15 15 14 13 12 12 10 7 8 10 10 11 12 10 8 5 4 3 4 2 3 3 3 3 3 3 3 4 5 6 7 8 8 9 9 7 7 9 11 12 14 14 14 14 14 13 12 12 12 11 11 11 11 11 11 11 10 9 9 10 10 11 11 12 12 13 15 15 16 16 17 17 15 14 15 15 15
9 9 9 8 8 9 10 11 11 10 11 12 12 12 10 8 7 9 8 8 8 8 8 7 5 4 3 4 3 2 3 3 1 2 2 3 4 4 4 5 6 8 11 10 9 12 13 13 13 12 11 11 11 11 11 11 11 11 11 11 10 9 10 9 7 9 12 12 10 9 11 11 12 14 16 17 18 18 17 16 14 13 14 15 15
8 8 8 7 6 6 5 4 4 3 4 7 7 7 7 5 4 7 9 8 8 8 6 6 6 6 5 3 3 4 6 6 4 3 2 2 2 2 3 4 5 8 12 13 12 12 12 12 13 12 11 11 11 12 13 12 12 12 11 11 9 8 8 8 9 13 16 15 12 11 12 13 13 15 17 18 18 18 17 17 17 17 17 18 18
6 5 6 7 7 7 4 3 4 5 3 3 4 5 4 1 2 5 7 6 6 7 6 5 5 4 5 5 3 0 2 3 5 6 5 3 3 3 3 4 6 8 11 11 11 11 10 10 11 12 12 11 12 12 12 12 13 12 10 9 8 7 7 12 15 16 17 16 15 15 16 16 17 17 18 18 17 15 15 17 19 21 20 20 20
5 4 4 6 8 8 6 3 3 4 3 3 2 3 5 4 5 5 6 6 7 7 6 6 5 3 4 5 5 5 6 7 8 7 6 7 8 8 7 5 5 7 10 10 11 12 11 11 12 12 12 10 9 8 10 11 12 10 8 8 9 9 10 13 13 13 15 17 18 18 18 18 18 17 17 16 15 14 16 18 20 21 21 20 20
4 4 3 5 7 9 9 8 7 3 2 4 6 7 8 7 7 8 9 9 9 9 10 10 9 8 7 7 8 9 10 11 10 9 9 9 10 9 8 8 9 10 12 12 12 13 12 12 11 10 10 9 8 8 9 10 8 6 5 7 10 10 9 10 10 12 16 18 18 19 18 16 16 16 16 15 14 15 17 18 18 18 18 18 18
4 4 3 2 4 6 8 8 7 3 3 5 6 7 9 9 8 9 9 9 9 9 10 11 11 10 10 10 11 11 10 9 10 11 11 10 9 10 11 12 12 13 13 13 12 11 10 9 7 6 7 7 6 6 7 6 4 4 6 7 8 9 9 11 12 15 18 18 18 17 16 15 15 15 15 14 15 16 16 16 16 16 16 16 16
5 4 4 4 4 7 8 6 5 5 2 5 7 7 8 8 8 8 9 9 9 9 9 9 11 12 11 11 11 12 11 10 10 11 12 13 13 13 13 13 12 12 11 11 10 9 7 5 4 4 5 5 4 4 5 5 5 6 6 6 7 7 9 11 13 15 18 18 17 15 15 15 14 14 14 16 18 18 16 15 16 16 16 16 16
3 2 3 5 7 10 8 8 10 9 4 0 4 7 8 9 10 10 9 9 9 10 11 11 12 13 14 13 13 13 14 14 13 14 14 15 15 15 14 13 12 11 11 10 9 7 4 2 3 4 4 4 4 5 5 4 5 6 6 5 6 7 9 12 16 18 18 16 14 13 14 14 12 13 15 17 18 18 17 16 17 17 17 17 16
3 1 3 4 7 9 6 8 13 12 7 4 3 4 4 5 7 8 8 8 9 9 9 11 14 16 17 16 16 16 16 16 16 16 16 16 15 15 14 13 12 11 11 10 9 6 3 1 3 4 4 4 4 6 6 6 7 8 8 7 8 8 9 13 18 17 14 12 13 15 15 14 13 14 16 16 16 16 17 18 18 18 18 17 17
6 5 4 3 7 7 3 5 11 11 8 6 4 3 3 2 5 7 7 7 8 8 7 5 6 11 14 15 16 16 16 17 17 17 17 17 16 15 14 13 11 9 6 7 7 3 0 1 3 4 4 5 5 6 7 8 9 9 9 8 9 8 10 14 16 13 11 13 15 15 14 13 14 15 14 14 15 16 17 17 17 17 17 18 19
9 8 5 4 7 7 3 3 7 8 9 8 6 3 3 3 4 4 6 8 7 7 9 9 6 4 6 8 9 10 11 13 14 15 16 16 15 14 12 9 6 2 3 6 6 2 2 2 5 5 5 6 6 7 8 8 8 8 8 8 9 10 13 14 13 12 13 16 15 13 13 14 14 14 13 14 15 15 16 15 15 15 17 18 20
8 8 6 6 7 7 7 6 6 7 10 11 10 7 4 3 4 4 4 5 6 7 8 8 7 7 8 9 9 9 9 10 12 11 10 10 10 9 9 6 1 1 3 6 5 3 2 4 6 6 7 7 7 8 8 8 9 9 8 9 10 12 13 13 12 13 14 14 13 12 14 15 14 13 14 15 15 15 15 15 16 17 18 18 19
4 3 5 6 6 6 8 9 9 9 10 10 10 10 6 3 3 4 4 4 5 6 8 8 8 8 10 11 11 10 11 12 11 9 8 8 8 9 8 5 1 2 4 5 4 4 5 7 8 8 8 8 8 9 9 9 10 10 10 10 12 12 13 13 13 15 15 14 13 14 14 13 12 13 14 15 16 16 17 17 17 16 16 17 19
4 2 3 6 7 6 7 7 7 6 7 7 9 10 8 5 4 4 4 3 3 3 5 7 9 10 11 11 9 8 9 9 7 7 9 10 10 11 10 6 4 4 5 6 6 7 8 9 9 9 9 9 9 10 11 11 11 11 10 11 13 13 13 13 13 13 13 13 13 12 11 11 12 14 15 15 16 16 16 16 16 16 18 20 22
10 10 9 8 8 8 6 4 3 3 3 3 4 5 7 6 6 6 6 6 5 4 5 6 7 8 10 8 6 5 7 8 7 6 7 7 8 9 9 7 6 5 5 6 7 8 9 9 9 9 8 9 10 10 10 10 11 11 11 11 12 12 13 13 12 11 11 12 12 12 13 13 14 14 14 14 14 14 15 16 17 19 20 21 20
13 13 12 10 9 7 5 3 2 3 4 3 2 2 3 4 4 4 4 5 5 6 6 6 6 7 8 9 8 8 7 6 6 7 7 3 4 6 7 6 5 6 6 7 8 8 7 8 10 10 8 9 10 10 9 10 10 10 11 12 12 12 12 12 12 11 11 11 12 12 13 12 12 12 11 10 12 14 16 18 18 18 18 18 18
11 11 11 10 10 8 7 6 5 3 3 3 2 2 3 4 4 5 4 4 5 5 5 6 7 10 13 13 12 12 11 11 11 12 12 9 5 3 4 5 6 7 8 9 11 11 9 9 12 14 12 11 10 9 9 9 10 10 10 10 11 11 11 11 10 10 10 9 9 10 11 13 15 15 15 15 17 18 19 19 19 18 18 19 19
10 10 11 11 11 10 8 8 7 6 4 5 5 6 6 6 7 8 7 6 6 6 5 6 11 14 14 14 15 17 17 18 19 17 15 15 12 6 4 6 8 9 10 11 13 15 14 13 14 15 14 14 13 10 9 9 9 9 9 9 9 10 10 10 10 10 10 10 10 12 15 17 18 19 20 21 22 22 21 20 19 19 20 20 20
12 13 16 16 15 13 12 11 9 8 7 8 9 9 9 10 10 9 8 7 7 6 5 7 11 14 14 13 15 17 17 19 21 20 18 17 13 8 6 8 9 9 10 12 14 15 15 15 16 15 13 11 11 10 9 9 9 10 10 10 9 10 10 10 10 10 11 12 15 17 18 19 19 20 21 21 22 22 21 21 21 21 21 21 22
16 17 19 18 16 15 15 14 12 9 8 9 10 10 10 11 10 10 9 7 7 7 7 8 11 15 16 16 17 18 19 19 17 15 13 12 10 8 7 8 8 9 12 15 16 16 15 15 16 15 12 10 10 10 9 10 10 10 10 10 10 11 11 12 12 12 14 17 18 19 19 20 20 20 20 21 22 23 23 24 24 23 22 22 22
18 19 20 18 15 13 11 10 11 9 8 10 11 12 11 11 11 10 10 9 9 9 9 8 9 11 13 14 14 15 15 13 9 6 5 6 7 7 7 7 9 12 14 15 16 16 14 11 10 11 11 10 10 9 9 9 10 10 10 11 11 13 15 16 16 17 19 20 20 20 21 21 22 22 22 22 24 24 24 24 24 23 23 24 23
20 19 19 19 19 16 13 13 15 16 14 13 14 15 14 13 12 11 10 10 10 10 10 10 10 11 12 11 10 9 9 8 7 6 6 7 6 7 7 7 9 12 12 11 12 13 12 9 9 10 12 12 11 11 11 11 11 11 11 12 13 16 17 17 18 19 21 21 21 22 23 23 22 22 22 23 24 25 24 24 24 23 23 23 22
22 21 19 16 14 15 17 19 20 20 17 14 12 11 11 11 11 10 10 9 9 9 9 10 10 10 10 10 9 8 8 9 8 7 7 7 7 7 7 8 9 11 11 11 12 12 10 9 9 10 11 11 11 12 13 15 14 13 13 14 16 17 17 18 19 21 21 21 22 23 23 23 22 22 23 24 24 24 24 24 23 22 21 21 21
24 27 27 22 15 14 15 16 15 15 14 14 13 11 9 8 8 8 9 10 11 12 13 13 12 11 11 11 11 10 9 9 8 8 8 8 7 8 8 9 10 10 10 12 13 12 10 10 10 10 9 10 11 11 13 14 13 12 14 16 17 17 17 19 20 21 22 21 22 22 23 23 23 24 24 24 24 24 23 23 21 20 20 20 21
29 32 32 27 22 18 15 14 14 16 16 17 16 14 12 11 10 9 8 9 10 11 11 13 15 15 14 13 11 9 8 8 8 8 8 8 8 9 9 10 10 10 10 10 11 11 9 9 10 10 9 10 10 11 12 12 10 11 14 17 17 17 18 19 20 21 22 22 22 22 23 23 24 24 23 23 23 23 22 21 20 20 20 21 21
32 31 28 24 22 20 17 15 18 20 20 20 21 18 14 13 11 9 8 8 8 8 9 10 11 10 9 8 8 8 8 8 8 8 8 9 9 10 10 10 11 11 10 9 9 10 9 9 9 9 8 9 10 10 11 10 9 11 14 16 17 18 19 20 21 22 22 22 22 22 22 22 22 22 22 22 22 21 20 19 20 20 21 21 22
30 30 28 25 24 23 21 21 22 21 20 19 18 15 12 11 10 8 8 8 8 8 9 9 8 7 8 8 9 9 8 8 8 8 9 9 9 9 9 10 11 10 10 9 8 9 8 8 8 8 8 8 9 8 9 9 10 12 15 17 18 20 21 22 22 22 22 21 20 20 20 20 21 21 21 22 21 19 19 19 20 21 21 22 22
26 28 29 28 26 24 23 23 21 18 15 14 12 9 9 11 11 10 9 9 9 8 8 8 7 7 8 8 8 8 8 8 9 10 10 10 9 9 9 10 10 10 10 9 9 9 8 8 8 8 8 8 8 8 8 10 13 15 17 18 20 22 22 23 23 22 21 19 18 18 18 19 20 21 21 21 20 18 19 19 20 20 21 21 21
Wind_Direction
192 191 186 186 193 197 197 195 194 197 198 194 189 187 193 205 207 200 197 197 200 206 204 203 208 205 201 203 206 212 215 211 215 218 217 221 218 215 227 239 243 240 237 237 233 239 249 251 255 258 262 270 269 259 269 283 286 282 280 279 270 270 288 294 294 299 304 308 314 318 324 324 319 314 311 315 324 325 324 331 334 336 336 332 326
193 191 187 190 195 195 195 199 197 199 203 197 189 191 197 204 212 211 204 199 200 204 202 203 210 202 195 206 208 213 222 219 217 218 217 220 221 218 227 238 242 241 239 240 238 240 248 254 260 263 273 286 289 289 280 273 276 277 281 291 292 295 305 301 296 300 305 312 317 320 323 321 314 315 321 327 326 323 325 328 327 325 326 323 324
191 192 190 192 197 195 195 201 200 200 206 203 198 201 202 204 210 210 205 206 206 201 198 206 216 204 193 207 215 214 222 225 220 218 217 223 223 215 221 238 257 257 245 247 254 253 254 264 272 270 268 277 280 279 270 262 272 279 280 290 293 285 285 292 300 304 307 311 318 325 329 326 324 332 338 331 323 322 326 325 320 323 329 329 330
193 198 195 192 196 199 199 201 203 204 205 207 209 207 206 207 209 207 206 209 210 204 198 204 219 215 199 203 214 217 219 224 223 219 221 230 231 222 218 227 245 254 246 245 255 260 261 266 274 266 256 259 263 266 272 283 294 294 290 290 296 297 292 290 293 294 297 308 321 330 333 334 338 343 339 327 322 325 327 325 325 333 339 334 331
191 199 197 193 196 200 201 201 205 208 206 209 214 211 210 215 213 208 208 212 212 208 203 205 218 223 212 208 216 218 219 225 225 219 222 235 239 234 231 233 240 248 250 247 248 248 248 251 257 259 256 258 264 270 279 275 268 273 283 285 288 293 290 286 291 299 307 317 325 328 330 333 334 334 328 319 319 325 330 334 336 337 333 330 330
190 200 200 197 199 200 201 204 206 209 210 212 215 214 216 223 224 216 210 214 220 217 208 207 218 227 221 215 222 226 223 224 228 222 220 232 242 241 241 244 248 254 256 257 261 265 267 269 272 273 269 265 264 265 268 267 262 267 282 286 283 287 295 302 310 317 318 317 317 316 319 320 317 316 320 323 324 327 331 333 331 327 324 324 327
193 203 205 201 205 203 200 203 206 209 214 213 214 218 218 220 228 229 219 214 219 225 221 212 215 227 229 220 223 234 232 226 229 227 220 227 240 244 243 243 248 257 260 259 264 272 276 279 281 284 285 284 281 272 266 268 271 274 280 283 285 292 297 295 294 295 297 298 301 304 306 309 312 318 330 335 330 326 329 327 322 319 317 320 326
192 203 208 203 208 210 205 203 204 208 215 215 213 216 220 220 225 233 233 222 214 220 230 221 211 222 232 224 221 232 239 234 230 230 227 226 234 243 249 247 244 249 255 256 258 263 267 270 272 276 281 287 291 287 276 269 271 273 273 268 268 273 276 279 286 292 296 299 303 306 308 313 318 325 332 333 326 324 326 322 316 313 314 320 326
196 202 209 204 207 215 211 203 202 206 213 217 214 213 218 222 222 225 231 230 220 220 229 227 219 225 233 228 223 230 238 239 240 241 237 231 231 237 248 252 249 249 253 257 260 262 265 269 270 271 274 280 285 284 280 280 284 286 285 278 272 275 282 289 296 303 306 308 309 312 313 315 318 320 321 321 321 321 319 313 309 309 313 318 321
198 202 209 207 208 218 218 207 203 206 210 214 215 215 216 216 218 223 227 228 226 225 228 228 230 239 242 237 235 240 240 242 248 255 257 254 246 240 242 247 248 250 254 259 262 264 266 266 268 273 277 279 280 278 278 283 290 293 292 289 285 284 288 294 299 303 306 307 308 310 309 308 311 311 311 315 318 314 309 306 306 309 314 317 319
198 201 207 206 205 215 220 215 209 208 211 213 214 215 216 211 208 214 221 225 226 226 227 225 226 234 240 240 244 249 247 242 243 248 257 263 259 249 245 246 247 250 257 261 262 266 268 268 270 276 284 287 286 285 284 286 290 293 291 288 286 287 289 293 296 298 298 298 297 298 298 298 300 302 305 310 309 303 302 304 306 310 314 316 316
201 200 204 204 205 212 218 220 219 217 218 219 219 220 222 219 214 214 216 222 227 228 228 227 225 228 232 237 243 245 242 242 243 243 245 250 252 252 250 250 250 253 262 271 275 276 278 280 279 279 285 289 287 287 288 288 291 292 290 286 285 286 287 288 291 294 294 294 292 291 291 293 298 303 306 306 302 301 303 305 307 309 311 312 313
203 202 203 205 210 215 215 216 221 222 222 223 223 224 226 225 224 223 220 221 225 226 227 229 230 228 227 230 237 240 241 245 249 247 243 243 248 254 255 254 256 256 255 260 268 274 279 284 283 278 275 273 272 274 277 283 289 289 287 289 290 288 285 286 290 295 297 297 295 292 293 297 304 307 305 300 300 303 306 307 309 310 309 311 312
203 201 203 207 213 216 213 213 217 219 221 224 225 228 229 230 229 229 227 224 223 222 221 223 226 226 226 228 233 239 243 248 251 249 245 245 248 253 257 259 263 265 260 257 264 269 271 273 274 271 269 267 269 271 269 273 281 283 285 291 293 292 292 292 292 293 294 293 291 291 294 298 300 298 295 297 302 306 307 308 309 309 310 311 312
206 204 206 209 212 216 218 219 219 217 219 224 228 230 231 233 233 231 229 226 229 231 227 223 223 226 229 231 234 238 241 245 248 247 245 247 250 253 257 260 265 267 264 261 266 267 263 264 266 266 267 268 271 274 273 270 270 270 276 282 284 285 291 292 289 287 287 286 285 286 288 289 288 287 290 297 302 304 302 301 304 307 309 309 310
211 212 214 213 214 218 223 224 223 223 227 232 235 237 238 240 240 238 233 228 232 237 234 232 232 232 235 236 237 240 241 242 245 246 246 249 252 254 258 261 265 267 263 257 255 256 255 257 262 265 266 268 271 274 276 274 269 267 269 273 274 277 282 284 282 282 282 280 280 283 285 285 284 284 288 293 297 299 297 297 302 306 307 308 310
212 213 212 212 213 216 221 224 226 228 234 239 242 244 245 247 247 248 244 236 234 237 237 239 240 238 238 239 239 242 244 245 246 247 248 250 252 254 258 261 262 262 259 256 255 255 255 256 260 263 264 268 272 274 275 275 271 269 269 271 273 275 278 279 280 280 278 276 278 280 283 285 284 284 286 290 293 295 295 298 303 306 308 310 312
213 212 210 210 211 211 214 219 221 222 227 236 241 243 245 246 246 246 239 229 230 235 236 238 238 238 239 240 242 245 246 246 247 248 250 251 253 255 257 260 262 260 257 257 258 258 260 262 263 264 265 268 272 274 273 273 271 271 273 275 276 277 278 279 281 281 280 279 278 279 280 281 282 283 286 289 290 290 293 299 305 306 307 310 312
211 211 210 211 213 215 216 218 221 222 227 233 235 236 239 237 231 225 217 212 222 231 234 237 237 236 239 241 243 245 245 243 244 246 248 249 251 255 260 262 263 260 256 257 259 262 265 268 268 268 269 271 273 274 273 273 273 276 278 278 278 278 278 281 285 285 285 284 284 285 284 284 284 286 288 289 290 290 292 301 308 308 306 306 310
202 204 205 207 210 212 212 212 219 224 224 225 227 229 233 230 217 213 207 203 217 228 231 234 235 234 239 241 240 240 242 243 244 245 247 249 253 257 260 259 256 254 252 253 256 260 266 271 272 272 271 271 274 275 276 278 280 282 284 283 283 282 283 285 288 289 289 291 294 295 294 292 291 290 290 291 291 291 295 305 311 312 309 307 310
171 176 180 183 183 184 182 171 161 176 191 193 179 139 117 100 93 111 151 157 166 213 232 235 232 227 231 237 237 240 246 249 249 248 249 253 256 254 252 249 246 246 247 248 252 260 269 274 274 273 272 274 277 280 281 283 286 290 293 293 292 293 294 295 295 295 297 301 305 305 302 300 297 293 293 297 301 302 308 314 316 316 315 315 316
129 128 135 145 147 145 146 137 121 115 125 131 118 102 95 96 104 110 118 124 121 108 69 13 233 200 202 221 235 241 248 252 250 246 243 245 244 238 236 237 239 242 245 246 252 264 270 271 271 275 280 283 285 286 288 290 294 298 302 303 304 306 308 309 307 308 309 311 311 308 306 306 306 304 302 304 310 315 316 315 313 313 313 315 319
123 116 118 128 131 124 118 116 116 117 118 118 114 105 95 95 111 114 116 126 130 127 116 92 74 112 147 201 221 207 231 255 234 207 204 210 210 207 211 218 225 226 224 227 239 247 252 263 274 283 291 295 295 298 300 302 304 306 308 315 321 322 322 324 324 319 317 317 314 309 308 311 312 311 308 308 312 318 318 316 317 316 313 315 321
141 133 119 120 131 130 117 110 114 119 120 118 116 110 103 104 111 109 110 120 127 124 122 123 125 116 80 24 20 58 29 6 39 151 170 171 169 174 181 189 196 197 196 203 222 231 237 253 271 284 294 299 303 309 310 310 313 315 318 325 329 332 339 343 330 307 309 320 323 314 310 310 309 307 308 311 316 318 318 317 318 317 315 317 318
151 143 125 116 120 116 102 94 90 87 113 123 112 92 86 93 114 128 135 144 145 138 133 138 147 144 122 70 12 6 7 357 330 286 262 223 182 164 175 181 187 201 211 220 233 242 247 258 272 285 295 299 306 310 310 313 316 318 324 329 331 344 348 326 294 292 304 312 311 306 306 307 305 304 306 311 316 318 318 315 312 312 313 312 310
157 150 135 123 109 95 76 40 28 27 38 70 57 57 80 124 191 142 141 163 162 142 130 134 142 146 146 152 169 187 15 337 290 282 292 296 280 267 253 228 213 225 236 242 252 262 269 275 285 293 295 298 308 313 315 323 323 323 335 340 335 341 325 298 292 298 303 305 307 309 311 310 307 307 309 313 318 319 313 309 310 313 315 314 313
171 175 167 145 133 131 139 131 73 57 63 76 78 121 140 183 215 175 156 170 164 138 129 139 146 151 165 174 184 198 207 224 245 268 298 308 299 293 290 282 261 259 269 277 280 283 287 291 294 297 297 301 318 331 337 342 337 336 347 333 314 315 310 303 308 310 301 302 310 312 312 311 310 310 313 315 316 311 305 308 314 317 318 320 322
172 168 166 169 168 165 160 143 118 109 182 177 175 177 172 176 188 182 175 174 167 157 157 161 162 157 157 175 197 209 216 221 233 252 273 286 290 287 283 280 280 282 286 291 293 295 300 302 302 310 320 329 342 346 343 343 343 345 338 312 310 321 313 301 304 299 291 298 310 312 312 314 313 314 317 316 312 309 311 317 321 321 325 330 333
143 133 127 164 193 175 160 144 126 133 226 224 200 187 189 191 189 186 189 192 193 188 179 177 182 177 166 175 195 210 221 225 232 247 262 274 281 280 278 278 281 286 291 294 299 302 305 307 315 329 330 323 321 323 321 316 312 313 304 300 313 324 306 288 286 285 287 299 311 314 315 317 317 320 322 318 315 318 323 326 327 329 335 340 340
139 149 157 177 169 146 148 168 165 148 190 252 239 220 216 222 219 208 204 205 209 212 206 200 204 205 202 204 209 218 231 242 247 255 265 274 280 284 287 285 283 286 289 293 300 303 306 326 344 331 308 297 300 311 304 289 290 295 298 306 314 311 303 295 285 279 287 302 312 313 315 321 327 328 324 319 322 328 332 333 334 337 339 338 337
117 144 183 193 173 156 160 188 187 166 131 84 245 238 241 245 244 241 243 248 252 248 239 231 227 226 226 226 225 229 241 253 262 265 267 271 275 280 285 284 285 290 292 295 300 294 285 331 332 301 292 305 315 313 307 296 296 298 303 311 304 296 301 295 283 282 294 305 306 306 313 321 326 321 317 320 328 332 333 332 334 335 334 334 334
107 164 229 220 182 171 183 193 185 180 166 142 167 222 240 261 278 277 274 280 290 290 273 251 239 237 238 239 240 244 252 259 264 267 271 273 274 276 276 277 285 293 298 307 313 294 243 249 312 297 297 305 304 305 306 297 291 296 300 300 297 300 302 292 289 297 308 305 300 307 315 319 317 313 316 325 329 329 329 330 332 334 333 332 327
159 177 209 203 169 166 196 203 188 186 189 184 185 203 207 255 310 316 318 322 327 334 337 315 262 245 246 251 256 261 265 266 268 269 270 271 273 275 277 280 285 289 308 339 344 335 209 333 312 295 297 303 301 304 307 303 302 307 309 305 303 302 293 290 299 312 309 296 302 315 322 321 322 324 328 331 328 327 329 331 333 334 329 324 322
199 205 220 209 175 163 159 173 178 185 193 190 182 176 191 228 266 305 333 337 339 348 353 353 345 305 275 278 287 290 286 282 282 281 280 280 282 283 287 294 289 278 14 12 6 43 81 349 308 299 303 308 305 304 305 308 310 308 307 308 308 303 297 299 307 311 302 302 314 326 326 329 335 336 334 329 327 328 330 330 329 327 323 322 322
214 218 223 214 186 176 178 176 177 197 207 201 190 178 174 209 237 257 292 309 321 333 335 334 333 328 322 323 325 324 322 319 315 311 310 310 305 300 304 312 299 126 11 352 350 18 11 313 297 299 300 295 294 298 302 305 302 298 301 309 311 313 316 317 317 316 318 325 334 336 336 340 340 334 330 328 327 327 326 324 325 324 323 323 319
200 207 210 197 178 189 214 215 212 224 235 231 221 212 203 198 220 233 249 279 304 314 311 308 313 320 326 331 332 334 337 339 343 357 8 5 2 0 352 342 113 89 0 332 318 318 307 288 278 282 287 287 291 295 295 298 302 304 309 311 310 313 320 323 326 334 339 340 338 339 341 340 331 326 329 329 327 327 329 329 328 325 320 314 310
158 178 181 170 166 191 230 241 239 241 247 251 244 231 219 218 233 236 234 246 267 281 288 294 303 315 325 327 324 325 337 349 11 39 36 21 18 22 22 33 67 51 355 317 293 281 277 273 271 274 280 286 291 293 292 295 303 311 315 315 314 317 322 324 328 334 335 333 333 331 323 314 313 318 323 324 326 329 328 322 315 308 305 308 313
179 190 190 186 189 201 222 258 291 293 278 273 265 241 222 225 241 246 247 252 246 233 245 273 294 311 319 316 305 309 336 357 13 19 16 17 20 18 18 30 36 9 320 299 293 283 274 269 266 267 279 284 282 284 291 296 301 307 310 312 315 318 320 320 320 321 323 327 326 319 314 316 318 317 316 319 321 317 307 301 302 306 312 318 323
198 204 210 216 217 213 213 236 281 305 313 321 324 286 251 254 261 258 261 270 268 257 258 268 274 273 271 273 284 302 321 341 342 328 322 339 23 8 349 337 330 315 295 284 281 277 274 267 255 251 265 277 270 269 280 289 296 304 308 311 314 313 312 317 323 324 323 322 319 319 320 317 305 295 294 300 300 294 290 292 299 307 314 317 316
219 222 224 227 227 223 221 218 215 229 275 288 273 256 256 261 262 257 256 264 270 270 270 270 263 255 252 257 267 274 276 276 279 288 293 285 273 309 332 307 284 275 273 271 265 259 259 260 250 245 251 260 257 260 277 287 291 297 300 301 302 304 308 316 319 313 309 311 315 311 299 285 276 275 278 283 287 291 296 299 302 306 309 310 311
225 236 241 241 237 232 229 224 216 209 217 230 236 241 246 251 256 260 260 259 261 268 273 270 265 262 261 265 266 266 270 273 273 275 281 279 269 267 296 294 280 273 273 274 269 260 256 256 254 251 253 256 256 262 281 291 296 302 302 296 296 303 308 306 301 300 301 302 295 285 279 281 287 291 292 293 296 299 302 305 307 309 310 311 312
215 230 242 244 240 238 237 232 224 218 223 233 239 243 251 259 263 266 268 267 263 260 260 266 270 271 272 275 275 274 276 280 279 278 278 275 268 264 274 280 283 284 279 275 271 265 259 256 256 257 261 264 264 271 286 293 299 310 311 298 294 301 303 295 291 296 295 287 280 279 283 291 298 302 303 305 305 307 309 312 314 315 316 317 317
213 226 240 244 243 244 244 239 233 231 237 247 252 252 255 261 264 265 265 263 257 252 249 254 270 280 284 285 285 286 286 287 289 291 289 280 270 266 269 272 273 271 265 263 266 268 266 261 258 261 269 275 275 280 291 296 299 308 307 296 290 295 293 284 280 281 280 280 283 288 292 295 297 299 302 305 306 310 316 320 322 322 322 320 319
214 222 234 237 237 241 245 243 242 241 237 239 246 249 251 258 264 264 260 254 249 250 251 250 259 276 289 296 300 300 297 296 298 298 285 268 256 259 268 271 265 262 263 266 269 269 268 268 266 265 267 270 269 272 284 293 293 294 296 294 288 282 277 274 275 278 281 286 291 295 297 299 302 303 305 308 313 318 323 324 323 322 321 321 321
219 223 230 234 236 238 233 227 231 232 227 228 239 248 254 260 261 256 252 251 250 251 254 252 249 253 264 278 292 301 301 296 290 283 277 271 267 272 278 273 263 261 262 264 264 263 265 272 277 270 266 267 267 266 268 270 270 272 279 283 279 274 273 277 280 281 283 287 291 295 300 305 308 310 312 317 321 324 325 324 323 322 323 323 323
221 220 220 219 220 224 222 222 229 236 237 235 239 246 255 263 262 252 243 239 236 238 244 250 254 257 261 265 271 276 277 276 279 285 289 286 284 284 281 273 267 265 262 258 260 264 268 272 275 276 276 278 276 271 268 268 269 271 274 275 273 274 277 280 280 281 284 288 292 296 302 307 310 313 316 320 322 323 323 323 324 324 323 322 320
226 226 223 218 214 222 230 232 235 240 240 238 237 238 239 243 248 245 236 234 239 245 246 246 248 251 251 253 258 262 266 271 278 285 288 286 285 284 280 274 272 274 272 265 264 268 273 274 274 277 281 282 281 278 276 275 276 275 272 271 273 277 279 281 283 286 291 294 297 300 305 309 311 313 316 318 320 321 321 322 323 321 319 318 318
230 232 230 228 228 231 235 232 228 227 230 237 246 249 243 233 230 232 234 243 253 256 253 254 259 262 261 260 262 266 269 272 276 279 282 285 286 284 280 275 273 276 279 275 269 269 275 279 277 277 279 280 281 281 281 282 282 278 275 276 279 282 283 285 289 292 294 299 303 308 310 312 312 313 315 317 318 320 321 320 319 317 316 316 316
230 231 232 234 233 227 221 221 227 232 238 247 254 255 248 238 233 233 234 239 244 245 249 259 269 273 271 266 264 265 268 271 276 281 285 285 283 281 280 278 276 277 280 281 277 276 280 286 286 287 288 287 283 284 287 289 286 278 277 281 286 288 289 291 293 295 299 304 310 312 313 313 313 314 315 317 319 321 320 318 316 315 315 314 314
234 233 235 237 233 226 224 230 237 243 248 253 253 250 242 234 228 224 226 232 238 246 258 264 261 254 252 257 262 267 272 276 278 278 277 276 278 280 280 279 277 277 279 282 282 283 287 290 289 288 289 290 290 295 301 298 288 281 281 284 288 289 291 294 297 300 305 310 313 314 314 313 313 315 317 320 322 321 317 314 313 313 313 312 312
236 237 239 239 235 233 238 246 248 247 244 241 233 223 222 226 225 224 231 239 243 245 250 253 253 256 265 272 276 277 275 272 271 272 274 276 279 281 281 280 281 281 280 281 284 288 292 294 293 292 293 295 296 299 297 290 285 283 284 285 286 288 291 295 299 303 307 311 312 312 312 313 315 318 320 322 321 316 313 313 313 312 312 312 311